Powrót do katalogu

VOLGA R/B

AktywnyNaukaSSO
NORAD 68756·ROCKET BODY·🇷🇺 Russia

Wystrzelony Apr 16, 2026 z Plesetsk Cosmodrome

Loading…

Następne Przeloty (najbliższe 24 godziny)

TLE

ŚwieżeSource: Space-Track

Epoka: Sep 14, 2026, 14:37 UTC

1 68756U 26083D   26257.60911277  .00006799  00000-0  21160-3 0  9990
2 68756  96.9255  28.9041 0015912  91.1713 269.1354 15.33464251 23069

Śledź VOLGA R/B w czasie rzeczywistym z AllMySat

Download on the App Store